BCS225 EDDP-EDDM

Flight info

Callsign BCS225
Flight time N/A
Altitude 29000
Route GOLAT2S GOLAT T202 ALOSO T703 LULAR/N0455F300 T105 LANDU LANDU2A
Aircraft B752/M-SDE2E3FGHIJ3J4J7RWXY/LB1

Departure

Time 2026-05-04 15:22
Airport Leipzig/Halle Airport (EDDP)

Arrival

Time N/A
Airport Munich Airport (EDDM)
Time Latitude Longitude Altitude Speed Heading
2026-05-04 14:47 51.40855 12.24842 478 ft 0 kts 85°
2026-05-04 15:11 51.40855 12.24830 478 ft 2 kts 85°
2026-05-04 15:11 51.40854 12.24806 478 ft 2 kts 85°
2026-05-04 15:11 51.40853 12.24783 478 ft 2 kts 85°
2026-05-04 15:12 51.40852 12.24764 478 ft 0 kts 85°
2026-05-04 15:12 51.40849 12.24744 478 ft 2 kts 55°
2026-05-04 15:12 51.40838 12.24728 478 ft 2 kts 20°
2026-05-04 15:12 51.40828 12.24725 478 ft 0 kts 356°
2026-05-04 15:13 51.40821 12.24727 478 ft 1 kts 358°
2026-05-04 15:13 51.40812 12.24727 478 ft 1 kts 359°
2026-05-04 15:13 51.40807 12.24727 478 ft 0 kts 355°
2026-05-04 15:16 51.40824 12.24725 478 ft 4 kts 356°
2026-05-04 15:17 51.40858 12.24722 478 ft 5 kts 356°
2026-05-04 15:17 51.40960 12.24711 478 ft 10 kts 355°
2026-05-04 15:17 51.41029 12.24703 478 ft 11 kts 355°
2026-05-04 15:18 51.41097 12.24750 478 ft 12 kts 75°
2026-05-04 15:18 51.41108 12.24892 478 ft 12 kts 85°
2026-05-04 15:18 51.41115 12.25023 478 ft 11 kts 84°
2026-05-04 15:19 51.41124 12.25231 478 ft 7 kts 86°
2026-05-04 15:19 51.41128 12.25328 478 ft 10 kts 84°
2026-05-04 15:19 51.41153 12.25600 478 ft 11 kts 51°
2026-05-04 15:20 51.41172 12.25621 478 ft 0 kts 16°
2026-05-04 15:20 51.41191 12.25625 478 ft 5 kts
2026-05-04 15:20 51.41237 12.25623 478 ft 6 kts 356°
2026-05-04 15:20 51.41286 12.25618 478 ft 10 kts 355°
2026-05-04 15:21 51.41378 12.25605 478 ft 8 kts 347°
2026-05-04 15:21 51.41395 12.25550 478 ft 5 kts 275°
2026-05-04 15:21 51.41391 12.25425 478 ft 33 kts 266°
2026-05-04 15:22 51.41356 12.24632 478 ft 109 kts 266°
2026-05-04 15:22 51.41279 12.23028 484 ft 178 kts 264°
2026-05-04 15:22 51.41019 12.18639 1661 ft 223 kts 266°
2026-05-04 15:23 51.40881 12.16057 2446 ft 244 kts 266°
2026-05-04 15:23 51.40738 12.13307 3281 ft 251 kts 266°
2026-05-04 15:23 51.40598 12.10454 3668 ft 266 kts 266°
2026-05-04 15:23 51.40462 12.07494 4454 ft 265 kts 266°
2026-05-04 15:24 51.40229 12.01634 5868 ft 269 kts 266°
2026-05-04 15:24 51.39302 11.95918 6963 ft 277 kts 232°
2026-05-04 15:25 51.37857 11.93933 6957 ft 278 kts 210°
2026-05-04 15:25 51.36195 11.92423 6917 ft 271 kts 213°
2026-05-04 15:25 51.34644 11.90792 6920 ft 267 kts 215°
2026-05-04 15:26 51.31673 11.87400 7684 ft 265 kts 217°
2026-05-04 15:26 51.30180 11.85624 8242 ft 272 kts 218°
2026-05-04 15:26 51.27114 11.81928 9333 ft 277 kts 215°
2026-05-04 15:27 51.25361 11.80756 9901 ft 283 kts 189°
2026-05-04 15:27 51.21413 11.81673 11060 ft 294 kts 169°
2026-05-04 15:28 51.17415 11.83202 12149 ft 298 kts 168°
2026-05-04 15:28 51.15400 11.84004 12706 ft 300 kts 168°
2026-05-04 15:28 51.11345 11.85640 13785 ft 303 kts 168°
2026-05-04 15:29 51.09311 11.86465 14322 ft 304 kts 168°
2026-05-04 15:30 51.01136 11.89786 16392 ft 305 kts 168°
2026-05-04 15:30 50.94880 11.92319 17660 ft 313 kts 168°
2026-05-04 15:31 50.90648 11.92246 18551 ft 305 kts 204°
2026-05-04 15:31 50.88817 11.90676 19025 ft 301 kts 216°
2026-05-04 15:32 50.83678 11.85003 20338 ft 303 kts 218°
2026-05-04 15:32 50.80269 11.81113 21206 ft 303 kts 218°
2026-05-04 15:33 50.76862 11.77200 22082 ft 301 kts 218°
2026-05-04 15:34 50.71673 11.71840 23414 ft 298 kts 199°
2026-05-04 15:34 50.69637 11.71413 23907 ft 299 kts 179°
2026-05-04 15:34 50.65630 11.72984 24832 ft 294 kts 168°
2026-05-04 15:35 50.61783 11.74868 25543 ft 288 kts 168°
2026-05-04 15:35 50.59861 11.75838 25754 ft 290 kts 167°
2026-05-04 15:35 50.57944 11.76817 25970 ft 291 kts 167°
2026-05-04 15:36 50.54086 11.78799 26397 ft 293 kts 167°
2026-05-04 15:36 50.52139 11.79801 26610 ft 294 kts 167°
2026-05-04 15:36 50.50191 11.80804 26817 ft 295 kts 167°
2026-05-04 15:37 50.48266 11.81794 27025 ft 296 kts 167°
2026-05-04 15:37 50.46317 11.82864 27231 ft 298 kts 161°
2026-05-04 15:37 50.44416 11.84162 27454 ft 298 kts 162°
2026-05-04 15:37 50.42496 11.85440 27667 ft 298 kts 162°
2026-05-04 15:38 50.40587 11.86723 27874 ft 298 kts 162°
2026-05-04 15:38 50.38697 11.87997 28087 ft 298 kts 161°
2026-05-04 15:38 50.36806 11.89274 28298 ft 298 kts 162°
2026-05-04 15:38 50.34884 11.90571 28507 ft 297 kts 162°
2026-05-04 15:39 50.33013 11.91834 28713 ft 296 kts 162°
2026-05-04 15:39 50.31132 11.93104 28925 ft 294 kts 162°
2026-05-04 15:40 50.25388 11.96969 28985 ft 307 kts 162°
2026-05-04 15:40 50.21380 11.99665 28985 ft 318 kts 161°
2026-05-04 15:41 50.17234 12.02451 28982 ft 330 kts 161°
2026-05-04 15:41 50.12922 12.05343 28977 ft 344 kts 161°
2026-05-04 15:42 50.08454 12.08333 28979 ft 358 kts 161°
2026-05-04 15:42 50.03793 12.11445 28977 ft 372 kts 160°
2026-05-04 15:43 49.98948 12.14669 28976 ft 387 kts 160°
2026-05-04 15:43 49.93949 12.17992 28961 ft 391 kts 160°
2026-05-04 15:44 49.88982 12.21286 28961 ft 388 kts 160°
2026-05-04 15:44 49.83997 12.24583 28963 ft 390 kts 160°